Weather Service Report


138 
ASUS43 KLOT 300008
RWRIL 

ILLINOIS REGIONAL WEATHER ROUNDUP
NATIONAL WEATHER SERVICE CHICAGO/ROMEOVILLE IL
700 PM CDT FRI APR 29 2016

NOTE: "FAIR" INDICATES FEW OR NO CLOUDS BELOW 12,000 FEET WITH NO
SIGNIFICANT WEATHER AND/OR OBSTRUCTIONS TO VISIBILITY.

* THESE STATIONS ARE NOT UNDER NWS QUALITY CONTROL. THEY ALSO MAY NOT
  REPORT WEATHER SUCH AS PRECIPITATION OR FOG.

ILZ001-002-007-009-015-016-024-300100-
NORTHWEST ILLINOIS
  
CITY           SKY/WX    TMP DP  RH WIND       PRES   REMARKS
MOLINE         CLOUDY    50  41  71 E13       30.08S                  
6HR MIN TEMP:  50; 6HR MAX TEMP:  53;                                

STERLING*      CLOUDY    48  43  81 E9        30.11S                  
SAVANNA*       CLOUDY    49  40  72 NE8       30.11S                  
$$

ILZ003-004-008-010-011-017-018-300100-
NORTH CENTRAL ILLINOIS
  
CITY           SKY/WX    TMP DP  RH WIND       PRES   REMARKS
ROCKFORD       CLOUDY    49  38  65 E3        30.14S                  
6HR MIN TEMP:  47; 6HR MAX TEMP:  50;                                

FREEPORT*      CLOUDY    46  40  78 NE3       30.13S                  
ROCHELLE*      CLOUDY    47  41  80 E3        30.12R                  
DE KALB*       CLOUDY    47  40  76 NE3       30.12S                  
$$

ILZ005-006-012>014-019>023-300100-
NORTHEAST ILLINOIS
  
CITY           SKY/WX    TMP DP  RH WIND       PRES   REMARKS
CHICAGO-OHARE  CLOUDY    45  38  76 NE10      30.12R                  
6HR MIN TEMP:  45; 6HR MAX TEMP:  51;                                

CHICAGO-MIDWAY CLOUDY    47  38  71 NE9       30.12R                  
6HR MIN TEMP:  47; 6HR MAX TEMP:  51;                                

AURORA         CLOUDY    49  41  74 N6        30.11S                  
6HR MIN TEMP:  48; 6HR MAX TEMP:  49;                                

LANSING*       CLOUDY    44  39  83 NE9       30.13R HAZE             
JOLIET*        CLOUDY    52  42  69 NE8       30.11R                  
WAUKEGAN       MOCLDY    43  36  76 NE8       30.12S                  
6HR MIN TEMP:  43; 6HR MAX TEMP:  47;                                

DUPAGE AIRPORT CLOUDY    48  38  68 NE7       30.10S                  
6HR MIN TEMP:  46; 6HR MAX TEMP:  51;                                

KANKAKEE*      CLOUDY    51  42  71 NE10      30.10R                  
WHEELING       CLOUDY    44  37  76 NE7       30.14R                  
6HR MIN TEMP:  43; 6HR MAX TEMP:  48;                                

MORRIS*        CLOUDY    50  42  74 N5        30.09R                  
ROMEOVILLE*    CLOUDY    49  39  69 E9        30.11R                  
NORTHERLY ISL    N/A     41  38  89 N12         N/A                   
NORTHERLY ISL    N/A     41  38  89 N12         N/A                   
$$

LMZ740>746-300100-
SOUTHERN LAKE MICHIGAN
  
STATION/POSITION SKY/WX   TEMP    WIND        PRES    VSBY  WAVE
                          AIR SEA DIR/SP/G                  HT/PER
                          (F)     (DEG/KT/KT) (MB)    (MI)  (FT/S)
SOUTHERN BUOY              40 40   20/ 10/ 10 1020.5F         1/ 4
HARRISON CRIB              41      10/ 11/ 11   N/A
BURNHAM HARBOR             41      10/  7/ 11   N/A
CALUMET HARBOR             42                 1019.5R
BURNS HARBOR               42      10/ 10/ 11 1020.3F
MICHIGAN CITY              42     350/  9/ 11   N/A
ST. JOSEPH                 44 47                N/A           2/ 3
$$

ILZ025>027-034>036-040-047-049-050-058-095>099-300100-
WEST-CENTRAL ILLINOIS
  
CITY           SKY/WX    TMP DP  RH WIND       PRES   REMARKS
QUINCY         CLOUDY    54  47  77 NE10      30.00S                  
GALESBURG*     CLOUDY    50  44  79 NE12      30.08R                  
MACOMB*        CLOUDY    53  47  81 NE12      30.07F                  
JACKSONVILLE*  CLOUDY    56  49  76 NE13      30.02R                  
PITTSFIELD*    CLOUDY    56  51  82 NE8       30.00S                  
$$

ILZ028>032-037-038-041>044-048-051>054-059>061-300100-
CENTRAL ILLINOIS
  
CITY           SKY/WX    TMP DP  RH WIND       PRES   REMARKS
PONTIAC        CLOUDY    53  47  82 N8        30.10R                  
BLOOMINGTON    CLOUDY    54  48  80 NE12      30.07R                  
DECATUR        CLOUDY    59  49  69 NE12      30.03S                  
PEORIA         CLOUDY    52  44  74 NE12      30.07R                  
6HR MIN TEMP:  52; 6HR MAX TEMP:  55;                                

LACON*         CLOUDY    49  43  78 NE3       30.10R                  
LINCOLN*       CLOUDY    58  49  72 NE9       30.03F                  
SPRINGFIELD    CLOUDY    58  49  72 NE10      30.02F                  
6HR MIN TEMP:  55; 6HR MAX TEMP:  61;                                

TAYLORVILLE    CLOUDY    61  52  72 E10       30.01S                  
$$

ILZ033-039-045-046-055>057-062-063-300100-
EAST-CENTRAL ILLINOIS
  
CITY           SKY/WX    TMP DP  RH WIND       PRES   REMARKS
CHAMPAIGN      CLOUDY    57  48  72 NE12      30.05S                  
RANTOUL*       CLOUDY    58  48  67 E5        30.08R                  
MATTOON        CLOUDY    61  50  67 NE8       30.02S                  
PARIS*         CLOUDY    60  51  73 N5        30.06R                  
$$

ILZ079-100>102-300100-
SOUTHWEST ILLINOIS
  
CITY           SKY/WX    TMP DP  RH WIND       PRES   REMARKS
ALTON          CLOUDY    61  52  72 NE92      29.97F                  
BELLEVILLE     CLOUDY    64  56  75 E7        29.95F                  
CAHOKIA*       CLOUDY    64  53  67 E10       29.97R                  
SPARTA*        MOCLDY    64  55  72 E9        29.97S                  
$$

ILZ064>066-069>071-074>076-080>082-084>086-088>090-092>094-300100-
SOUTH-CENTRAL ILLINOIS
  
CITY           SKY/WX    TMP DP  RH WIND       PRES   REMARKS
CARBONDALE     CLOUDY    64  55  72 E6        29.96S                  
6HR MIN TEMP:  63; 6HR MAX TEMP:  64; 6HR PCP: TRACE;                

CAIRO*         DRIZZLE   61  58  91 NE5       29.92F                  
EFFINGHAM*     CLOUDY    64  54  69 CALM      30.03R                  
MARION         CLOUDY    64  57  77 E5        29.98R                  
MT. VERNON     CLOUDY    64  52  63 NE9       29.99S                  
CENTRALIA*     CLOUDY    64  55  74 E6        29.98R                  
SALEM*         CLOUDY    64  53  68 E5        29.98F                  
METROPOLIS*    CLOUDY    62  60  94 CALM      29.96S                  
$$

ILZ067-068-072-073-078-083-087-091-300100-
SOUTHEAST ILLINOIS
  
CITY           SKY/WX    TMP DP  RH WIND       PRES   REMARKS
LAWRENCEVILLE  CLOUDY    64  54  69 SE3       30.01F                  
FLORA*         CLOUDY    64  55  70 E5        30.00F                  
FAIRFIELD*     CLOUDY    64  55  72 NE6       29.98F                  
HARRISBURG*    CLOUDY    65  57  76 E7        29.98S                  
ROBINSON*      CLOUDY    62  55  80 E3        30.03S                  
CARMI*         MOCLDY    64  56  73 NE8       29.98S                  
$$

ABBREVIATIONS USED IN REMARKS
   TC - TEMPERATURE IN CELSIUS
  WCI - WIND CHILL INDEX
   HX - HEAT INDEX
  VSB - VISIBILITY
$$

  

Return to Home page


Western Regional Climate Center, wrcc@dri.edu